Wind_Speed
12 13 13 14 14 15 15 16 16 17 18 20 22 23 23 22 21 21 22 23 24 24 23 22 22 22 22 22 21 21 21 22 23 23 23 22 22 22 22 22 23 24 25 26 26 25 25 25 24 24 23 23 22 22 22 22 23 23 23 23 24 24 24 25 26 27 28 29 29 29 29 29 29 29 29 29 29 29 29 29 30 30 30 30 30 30
12 13 14 14 14 14 15 15 16 16 18 19 21 22 22 21 22 22 23 24 24 23 23 22 22 22 22 22 22 21 22 22 23 23 22 22 22 22 22 23 24 25 26 26 26 25 25 25 24 24 23 23 22 22 22 23 23 23 23 24 24 24 25 26 27 28 29 29 29 29 29 29 29 28 28 28 28 28 28 29 30 30 30 30 30 30
13 14 15 15 14 14 14 14 15 15 17 18 20 21 21 21 21 22 23 24 24 23 22 22 22 22 22 23 22 22 22 22 22 22 22 22 22 22 23 24 25 26 26 26 26 25 25 25 24 24 23 22 22 22 22 23 23 23 24 24 24 25 26 27 28 28 29 29 29 29 29 29 29 29 28 28 28 28 28 29 29 30 30 30 30 30
12 13 14 14 13 13 13 13 14 15 16 18 19 20 19 20 20 22 23 23 23 23 22 22 21 22 22 23 23 22 22 22 22 22 21 21 22 22 23 25 26 26 26 26 26 25 25 25 24 23 23 22 22 22 23 23 23 24 24 24 25 26 27 27 28 28 29 29 29 29 29 29 29 29 28 28 28 28 28 29 30 30 31 31 30 30
12 12 13 13 12 12 12 12 14 15 17 18 19 19 19 19 20 21 23 23 23 22 22 22 22 22 22 23 23 23 22 22 22 21 21 21 22 23 24 25 26 26 26 26 26 25 25 24 24 23 23 22 22 23 23 24 24 24 25 25 26 27 27 28 28 28 28 29 29 29 29 29 29 29 29 29 29 29 29 30 31 31 31 31 31 31
11 12 12 12 11 11 11 12 13 16 18 19 19 18 18 18 20 21 22 23 23 22 21 21 21 22 22 23 23 23 22 22 21 21 21 21 22 23 25 26 26 26 26 26 25 25 25 24 24 23 23 23 23 23 24 24 24 25 26 26 27 27 28 28 28 28 28 28 28 29 29 29 29 29 29 29 30 30 30 31 31 32 32 32 32 31
11 11 12 11 11 10 10 11 13 16 19 19 19 18 18 18 19 20 21 22 21 21 21 21 21 22 23 23 23 23 23 22 22 21 21 22 22 24 25 25 25 25 26 25 25 25 24 24 23 23 23 23 23 24 24 25 25 26 26 27 28 28 28 28 28 28 28 28 28 28 28 29 29 29 29 30 30 31 31 32 32 32 32 32 32 32
11 11 12 11 11 10 10 11 13 16 18 19 19 19 19 19 19 20 20 20 20 20 21 21 22 23 23 23 23 23 23 22 22 22 23 23 24 25 25 25 25 25 25 25 25 25 24 24 24 24 24 24 24 24 25 25 26 27 27 28 28 28 29 29 28 28 28 28 28 28 28 28 29 29 29 30 30 31 31 32 32 32 32 32 32 32
11 12 12 12 11 11 11 11 13 15 17 18 17 17 18 19 20 20 20 20 19 20 20 22 23 24 24 23 22 22 22 22 22 22 23 24 25 25 25 25 25 24 24 25 25 24 24 24 24 24 24 24 25 25 25 26 27 28 28 29 29 29 29 29 29 28 28 28 28 28 28 29 29 29 30 30 30 31 31 31 32 32 32 32 32 32
11 12 12 11 11 11 11 12 13 15 16 16 15 15 16 18 20 21 21 20 20 20 20 21 23 24 24 23 22 22 23 23 23 23 23 23 24 24 24 24 24 24 24 24 24 23 23 23 24 24 25 25 25 26 27 27 28 28 29 29 29 29 29 29 29 29 28 28 28 28 29 29 29 29 30 30 30 30 31 31 31 31 31 32 32 32
11 11 11 11 11 11 11 12 13 14 15 15 15 14 15 17 19 19 20 20 21 21 21 21 22 23 23 23 23 23 24 25 26 25 25 25 25 25 25 24 24 24 24 24 23 23 23 23 24 25 25 26 27 27 28 28 29 29 29 30 30 30 29 29 29 29 29 29 29 29 29 29 29 30 30 30 30 30 30 30 30 31 31 31 32 32
11 11 11 10 10 11 12 13 13 14 15 15 15 15 16 17 18 18 18 19 20 21 21 21 21 21 20 20 22 23 25 25 25 25 26 27 27 28 27 27 27 26 27 26 25 25 24 24 25 25 26 27 28 28 29 29 30 30 30 30 30 30 30 30 29 29 29 29 29 29 29 30 30 30 30 30 30 30 30 30 30 31 31 31 31 32
10 11 11 10 10 11 12 13 14 14 14 15 15 15 15 16 17 17 16 17 18 19 20 20 20 19 18 17 19 22 25 25 25 25 26 27 29 30 29 29 29 29 29 28 28 28 28 27 28 28 28 29 29 30 30 30 30 30 31 30 30 30 30 30 30 29 29 29 29 30 30 30 30 30 30 30 30 30 30 30 30 31 31 31 32 32
11 11 11 10 10 11 12 13 13 13 14 14 14 13 14 15 16 16 16 16 17 18 18 18 17 17 16 16 19 23 26 26 27 27 27 28 29 29 29 29 29 28 28 27 28 28 29 29 30 30 30 30 30 30 31 31 31 31 31 31 31 30 30 30 30 30 30 30 30 30 31 31 31 31 30 30 30 30 30 31 31 31 31 31 32 32
11 11 10 10 10 11 12 13 13 13 12 12 12 13 13 14 14 15 16 16 17 18 18 18 18 17 15 16 20 24 27 27 27 27 27 27 28 28 28 28 27 27 26 26 26 28 29 30 30 30 31 31 31 31 31 31 31 31 31 31 31 31 30 30 30 30 30 31 31 31 31 31 31 31 31 31 31 31 31 31 31 31 31 31 32 32
10 10 9 9 10 11 11 12 12 12 11 11 12 12 12 13 14 14 15 15 16 17 17 18 19 18 17 18 22 25 27 26 26 25 26 26 26 26 26 26 26 26 25 25 26 27 29 29 29 30 30 31 30 30 30 30 30 30 30 31 30 31 30 30 30 31 31 32 32 32 32 32 31 31 31 31 31 31 32 32 31 31 31 31 31 31
9 9 9 9 10 10 11 10 10 10 10 10 10 10 11 11 12 13 14 15 15 16 16 16 15 14 15 19 23 25 26 26 25 24 24 24 25 25 25 25 24 24 24 25 25 26 27 28 29 30 30 30 30 30 30 30 30 30 30 30 30 30 31 31 31 32 32 32 32 32 32 32 32 31 32 32 32 32 32 32 32 31 31 31 31 30
8 8 8 8 9 9 9 9 9 9 10 10 10 10 10 11 12 13 14 14 15 15 15 15 13 12 12 16 20 24 26 25 24 23 23 23 24 25 24 23 23 23 24 25 26 26 27 28 29 30 29 29 29 29 29 29 30 30 30 30 30 31 31 32 32 32 33 33 33 32 32 32 32 32 32 32 32 32 32 32 31 31 31 31 31 31
7 7 7 7 8 8 8 7 8 8 9 9 10 11 11 12 13 13 13 14 14 14 14 13 13 13 14 16 20 24 25 25 23 22 22 22 23 23 23 22 22 22 24 25 25 26 27 28 29 30 29 29 29 29 29 29 29 29 30 30 30 31 32 32 33 33 33 33 33 32 32 32 32 32 33 33 33 33 32 32 31 31 31 31 31 31
6 5 5 6 7 7 7 6 7 7 8 9 10 11 12 13 13 13 13 13 13 13 13 13 13 14 16 18 21 24 25 24 22 21 20 21 22 22 22 21 22 23 24 25 25 26 27 29 30 30 30 29 28 28 28 28 29 29 29 30 31 32 33 33 33 34 33 33 33 33 33 33 33 33 33 33 33 33 32 32 31 31 31 31 32 33
5 5 6 6 7 7 7 7 7 8 8 10 11 12 13 13 13 13 13 14 14 14 13 14 15 16 17 19 22 24 24 23 21 20 19 19 20 20 20 21 22 23 24 25 26 26 27 29 30 30 29 28 28 28 28 28 28 28 29 30 31 32 33 33 33 33 33 33 33 33 33 33 33 34 34 33 33 33 32 32 32 32 32 32 33 34
6 7 7 7 7 8 8 8 9 9 9 9 10 11 12 13 13 13 14 14 14 14 14 15 17 19 20 21 23 23 21 20 19 19 19 18 19 20 21 21 22 23 24 25 26 27 28 28 29 29 29 28 27 27 26 26 27 28 29 30 32 32 33 33 33 33 33 33 33 33 33 34 34 34 34 33 33 32 32 32 32 32 32 33 34 34
7 7 8 8 8 8 9 9 10 10 10 10 10 10 11 11 12 12 13 14 14 15 16 18 20 21 21 21 21 21 19 18 18 18 17 15 17 20 22 23 23 23 23 25 26 27 28 28 28 29 28 27 26 26 25 26 27 28 30 31 32 32 32 32 32 32 33 33 33 33 34 34 34 34 34 33 33 32 32 32 32 32 33 33 34 34
9 9 9 9 9 9 10 10 11 10 10 10 11 11 11 11 11 11 12 13 14 16 17 19 20 20 20 20 19 18 18 18 18 17 15 14 16 20 22 23 23 23 24 25 26 27 27 28 28 28 27 27 26 25 25 26 27 29 30 31 31 31 32 32 32 32 32 33 33 33 34 34 34 34 33 33 33 32 32 32 32 32 33 34 34 34
10 11 11 11 11 11 11 11 11 11 11 11 11 11 11 11 11 11 12 14 14 15 16 17 18 18 19 19 18 17 18 18 18 16 15 15 17 21 22 23 23 23 25 26 26 27 27 27 27 27 26 26 25 25 25 27 28 29 30 30 30 31 31 31 31 32 32 33 33 34 34 34 34 33 33 33 32 32 32 32 32 33 33 34 34 33
9 10 10 10 10 10 10 10 10 10 10 10 10 11 11 11 12 13 14 14 14 14 15 15 16 17 18 18 18 18 19 19 17 15 15 15 18 21 22 22 23 24 25 27 27 26 26 26 26 26 25 25 25 26 27 28 29 29 29 30 30 30 30 30 31 31 32 33 33 34 34 34 33 33 32 32 32 32 32 32 32 33 33 33 33 32
8 8 8 9 9 9 10 10 10 10 10 10 10 10 10 11 12 13 14 14 13 13 13 13 14 15 17 17 18 19 20 19 16 14 15 17 18 20 21 22 23 24 26 27 26 25 24 24 24 24 24 25 26 28 29 29 29 29 29 29 29 29 29 30 30 31 32 33 33 34 33 33 33 32 32 32 32 32 32 32 32 33 33 32 31 30
8 8 8 8 8 9 9 9 9 9 9 9 9 9 9 11 12 13 14 14 13 13 12 12 13 14 15 16 18 20 21 18 15 14 16 18 17 18 21 22 23 24 26 26 26 25 22 21 21 21 22 24 27 29 29 29 29 29 29 28 28 28 29 29 30 31 32 33 33 33 33 33 32 32 32 32 32 32 32 32 32 32 32 31 30 29
8 8 8 8 8 8 8 8 8 9 9 9 9 9 9 10 11 13 14 14 13 13 12 13 13 13 15 17 19 20 19 16 14 15 18 19 18 18 21 22 23 24 25 26 27 25 21 19 18 19 22 25 27 29 30 30 30 29 29 28 28 28 29 29 30 31 32 32 32 32 32 32 32 32 31 31 31 31 31 32 32 32 31 30 29 29
9 10 9 9 8 7 7 7 8 8 9 9 9 9 9 9 11 12 12 13 13 13 13 13 14 14 15 17 17 16 15 14 15 17 19 19 18 19 21 22 22 23 24 24 22 21 21 21 20 20 22 25 27 29 29 30 30 30 29 29 29 29 30 30 30 31 31 32 31 31 31 31 31 31 31 31 31 31 31 31 31 30 30 29 29 30
10 10 10 10 9 8 8 8 8 8 8 8 8 9 9 9 10 11 11 12 12 13 13 14 14 15 15 14 10 8 10 15 18 19 20 18 18 19 21 22 22 23 22 21 16 12 14 21 24 24 24 26 27 28 29 29 29 29 30 30 30 30 30 30 31 31 31 31 31 31 31 31 31 31 31 31 31 31 30 30 30 30 29 29 29 30
10 10 10 10 10 9 8 8 8 8 8 9 9 9 9 9 9 10 10 11 12 12 13 14 14 15 15 14 11 10 13 18 21 21 20 18 18 20 21 21 22 23 22 20 17 13 8 15 24 29 28 28 27 28 28 28 28 29 29 30 30 31 31 31 30 30 30 31 31 31 30 30 30 30 30 30 30 30 30 30 30 29 29 28 29 29
9 9 10 10 10 9 9 9 8 9 9 9 9 9 9 10 10 10 11 11 11 12 13 14 14 15 15 15 16 17 19 20 21 20 20 19 19 20 21 22 23 23 23 22 21 19 15 18 24 29 29 29 27 27 27 27 28 28 29 30 31 31 31 31 30 30 30 30 30 30 30 30 30 30 30 30 30 30 30 30 30 29 28 28 28 29
9 9 10 10 10 10 9 9 9 9 9 10 10 10 10 11 11 11 11 11 11 11 12 13 14 15 16 16 17 18 20 20 20 20 20 20 20 20 22 22 23 23 23 22 22 22 21 23 25 26 27 29 28 27 26 27 27 28 29 29 30 30 31 31 30 30 30 30 30 30 31 31 31 30 30 30 30 30 31 30 30 29 28 27 28 28
9 9 10 10 10 10 10 10 10 10 10 10 10 11 11 11 11 11 11 11 11 12 12 13 15 15 16 16 17 18 20 21 21 21 20 20 20 21 21 21 22 22 22 22 22 22 22 24 25 25 26 27 28 28 26 26 27 28 29 29 29 29 30 30 30 30 30 30 30 31 31 31 31 30 30 30 31 31 31 31 31 30 29 28 27 27
9 9 10 10 10 11 11 11 11 11 11 11 11 11 11 11 11 11 12 12 13 13 14 15 15 16 17 17 18 19 21 23 23 23 23 22 22 21 20 21 21 22 22 22 22 22 22 23 25 26 25 25 25 27 28 28 28 28 28 28 29 29 29 29 29 29 30 30 30 30 31 31 31 30 30 31 31 32 32 31 31 30 29 29 28 27
9 9 10 10 10 11 11 12 12 12 12 12 12 12 12 12 12 13 13 14 14 15 15 16 16 16 17 17 19 21 22 24 25 25 25 24 24 22 21 21 21 22 21 22 23 23 23 23 24 25 25 23 23 25 28 30 30 29 29 29 29 29 29 29 29 29 29 29 29 30 30 30 30 31 31 32 32 32 32 31 31 30 30 29 29 27
9 10 10 10 10 11 11 12 12 13 13 13 13 13 13 13 13 14 14 15 15 15 16 17 17 17 17 18 19 21 23 24 25 25 24 23 23 23 22 21 22 22 21 22 22 23 23 21 20 20 21 23 25 26 28 29 29 29 29 29 29 28 28 28 29 29 29 29 29 30 30 30 30 31 31 31 31 31 32 32 32 32 31 31 30 28
9 10 10 10 10 11 12 12 13 13 13 13 13 13 13 14 14 15 15 15 15 15 16 16 17 18 19 20 20 21 22 22 23 23 22 22 22 22 22 22 22 22 23 22 22 22 22 21 20 20 21 23 26 28 29 28 28 29 30 30 30 29 28 28 29 29 28 28 29 30 30 30 30 29 30 30 31 31 32 32 32 32 31 31 31 30
9 10 10 10 10 11 11 12 12 13 13 13 13 13 14 14 14 15 15 15 15 15 16 16 17 18 19 20 20 20 20 21 21 21 21 20 20 21 22 22 22 22 22 22 22 22 22 22 22 23 24 23 24 26 28 28 28 29 29 28 28 28 30 29 29 29 28 28 28 29 29 30 29 29 30 30 31 31 31 31 32 32 31 30 29 30
9 9 9 10 10 11 11 12 12 12 13 13 13 14 14 14 15 15 15 15 15 16 16 17 17 18 18 19 19 20 20 20 19 19 19 19 19 20 20 22 23 23 22 22 22 22 21 22 23 24 24 25 26 27 28 28 28 29 29 27 27 29 30 30 28 28 28 28 28 29 29 30 30 30 31 31 31 31 30 30 30 30 30 28 28 28
9 9 9 10 11 12 12 12 12 12 12 13 13 14 14 14 15 15 16 16 17 17 17 17 18 18 19 20 20 20 19 19 19 19 19 19 19 19 20 20 22 22 22 22 22 22 22 22 22 23 24 25 26 26 26 28 29 28 27 27 28 30 30 29 28 28 28 28 29 29 30 30 30 30 31 32 32 32 31 30 29 29 28 28 27 27
9 9 10 11 11 12 12 12 12 12 13 13 14 14 14 14 14 15 15 16 17 17 17 17 18 18 19 20 20 20 20 19 19 19 19 19 19 19 19 20 21 22 22 22 22 23 23 23 23 23 24 25 26 26 26 28 29 28 27 27 27 26 24 26 29 30 29 29 30 30 30 30 30 31 31 32 31 31 30 29 29 29 28 27 27 27
9 10 10 11 12 12 12 12 13 13 13 14 14 14 14 14 14 15 15 16 16 17 17 17 17 18 18 19 19 20 20 20 19 19 19 19 19 19 19 20 21 21 22 22 22 22 24 24 25 25 25 25 25 26 26 27 27 28 28 27 27 25 24 26 28 30 30 30 30 30 31 31 31 31 32 31 31 30 30 29 29 29 28 27 26 26
10 10 11 11 12 12 13 13 13 14 14 14 14 14 14 14 14 14 15 15 16 17 17 17 17 17 17 18 18 19 20 20 20 20 20 19 19 19 20 20 21 22 22 22 22 23 23 24 26 27 27 26 25 25 26 26 27 27 27 27 26 26 26 27 28 29 29 30 31 31 32 32 32 31 31 31 31 30 30 29 29 28 28 27 27 26
10 11 11 12 12 13 13 14 14 14 14 15 15 15 14 14 15 15 15 15 16 16 17 17 16 16 16 17 18 19 20 20 21 21 21 21 20 20 20 21 21 21 22 23 24 24 25 25 26 27 27 26 26 25 25 24 25 26 26 27 26 26 27 28 28 29 30 30 31 32 33 33 32 30 29 29 30 30 29 28 28 28 28 28 27 26
10 11 11 12 13 13 14 14 14 14 14 15 15 15 15 15 15 15 15 15 16 16 16 16 16 16 16 17 18 18 19 20 21 21 21 21 21 21 21 22 21 22 22 23 23 24 25 26 27 27 27 26 25 25 25 25 24 25 25 26 27 27 27 28 29 29 30 30 31 32 33 33 31 30 29 30 30 30 29 29 28 27 27 27 27 27
10 11 12 12 13 13 14 14 14 14 15 15 15 15 15 15 14 15 15 15 16 16 16 16 16 16 17 18 18 18 18 19 20 21 21 21 21 22 22 22 22 22 22 23 23 23 24 24 25 25 26 25 24 24 25 25 25 25 25 26 27 27 27 28 29 29 30 30 31 32 33 31 30 29 29 29 29 29 30 30 29 28 27 27 27 27
10 11 12 13 13 13 13 14 14 14 15 15 15 16 15 15 14 14 15 15 16 15 15 16 16 16 17 18 18 19 19 19 20 20 21 21 21 22 22 23 23 23 23 23 22 22 22 21 21 21 22 23 23 24 25 25 25 25 26 26 26 27 27 28 29 29 30 30 31 32 32 30 29 28 28 27 28 29 30 31 30 29 28 28 27 28
11 11 12 12 13 13 14 14 14 14 14 15 15 16 16 16 15 15 15 15 15 15 15 16 16 17 17 18 18 19 19 19 20 20 21 21 21 21 22 23 23 23 23 22 22 21 20 20 19 19 18 18 20 22 23 25 26 26 26 26 26 26 27 27 29 29 30 30 30 31 31 30 29 27 26 26 27 29 30 31 31 31 30 29 29 29
12 12 12 13 13 13 14 14 14 14 15 15 15 16 16 16 16 16 15 15 15 15 15 16 16 17 17 18 18 19 19 19 19 20 20 21 21 21 22 22 22 22 22 21 21 20 18 17 16 17 19 19 18 19 21 24 25 26 26 26 26 26 26 27 28 29 30 30 29 29 29 28 27 26 25 25 25 26 28 29 31 32 32 31 31 31
Wind_Direction
4 2 4 5 5 6 8 9 7 3 1 359 359 360 1 1 1 360 359 359 0 3 5 6 7 6 4 2 359 355 353 352 352 352 352 352 352 351 351 350 348 347 346 345 345 346 346 346 347 347 347 347 346 346 347 347 347 347 346 345 344 342 340 338 336 335 334 333 333 332 332 331 330 329 328 327 325 323 322 322 321 321 321 320 318 316
2 2 4 5 5 4 6 9 7 3 0 358 357 357 358 357 356 355 356 358 1 4 5 6 5 3 1 359 357 354 353 352 351 351 351 351 351 350 349 349 347 346 345 345 345 345 345 346 346 346 346 346 346 346 346 346 346 346 345 344 343 341 340 338 337 336 335 334 334 333 333 332 331 331 330 328 327 325 323 323 323 323 322 322 321 319
359 360 1 2 2 3 4 6 6 2 359 356 355 355 356 355 354 352 353 355 360 4 6 5 3 1 359 357 355 354 352 351 351 350 350 349 349 349 348 347 346 345 345 345 345 345 345 345 345 345 345 345 345 345 345 345 345 344 344 343 342 341 339 338 337 336 335 335 334 334 333 333 332 331 330 328 327 325 324 324 324 324 324 323 322 320
359 358 359 359 0 2 4 5 4 360 356 354 354 354 355 354 352 351 352 354 358 1 4 4 2 359 357 355 354 353 352 351 350 350 349 348 347 347 346 345 345 345 345 345 345 345 345 344 344 344 344 344 344 344 344 344 344 343 342 341 340 340 338 338 337 336 336 335 335 334 333 333 332 331 330 328 326 324 324 324 324 325 324 323 322 320
359 359 358 357 358 0 4 5 2 357 354 353 353 354 354 353 350 350 352 356 358 359 0 1 360 357 355 353 352 352 351 350 350 349 348 347 346 345 344 344 344 345 346 346 345 345 345 344 344 344 344 344 343 343 343 343 342 342 341 340 339 338 338 337 337 336 336 335 335 334 333 333 332 331 329 328 325 324 322 321 322 322 322 322 321 319
358 358 358 359 359 0 3 4 360 356 355 354 354 354 353 351 350 350 353 355 357 356 356 356 356 354 353 352 352 351 350 350 349 348 347 345 344 343 342 343 344 345 346 346 346 345 345 344 344 343 344 343 343 342 342 341 341 340 339 338 338 337 337 337 336 336 335 335 334 334 333 332 332 331 329 327 325 323 321 320 320 319 319 319 319 318
359 359 359 1 2 3 5 5 0 357 357 356 354 352 351 350 350 351 352 353 354 354 353 352 352 352 352 352 352 352 351 350 349 347 346 344 343 342 342 342 343 344 345 346 346 345 345 344 343 343 343 343 342 341 341 340 339 338 337 337 337 337 336 336 336 335 335 334 334 333 333 332 331 330 329 327 326 324 322 320 319 318 317 316 316 316
3 2 2 3 4 5 6 5 1 358 357 356 354 351 350 349 349 349 350 353 354 354 352 351 350 350 351 353 353 353 351 350 348 347 345 344 343 342 342 343 343 344 344 345 345 345 344 344 343 343 342 342 341 340 339 338 337 336 336 336 336 336 335 335 335 335 334 334 333 333 332 331 330 329 328 327 326 324 322 321 319 318 317 315 314 314
7 5 4 4 4 5 6 4 360 357 355 356 355 352 349 348 347 347 349 352 354 354 353 350 348 348 350 353 354 353 351 348 347 346 345 344 343 344 344 343 343 343 343 343 343 344 344 343 342 342 341 341 340 339 338 336 335 335 335 335 335 335 335 334 334 334 334 333 333 332 331 331 330 329 328 326 325 324 323 322 320 319 318 316 314 313
10 7 5 4 6 7 8 5 358 353 353 355 357 356 353 351 348 347 348 349 351 353 353 351 348 347 348 352 354 352 348 346 345 345 345 345 345 345 344 344 343 342 342 342 342 342 342 341 341 341 340 339 338 337 336 335 334 334 334 334 334 334 334 334 333 333 333 332 332 331 331 330 329 328 327 326 325 324 323 322 321 320 319 317 315 313
9 6 3 3 5 6 5 2 355 351 352 356 358 360 0 358 353 349 346 345 346 348 350 349 348 347 347 350 351 349 346 344 344 345 346 347 347 347 346 345 344 343 342 342 341 341 341 341 340 339 338 338 337 336 335 334 334 334 333 333 333 333 333 333 332 332 332 331 331 331 330 329 328 327 326 325 324 323 322 321 321 320 319 317 315 313
7 4 2 2 3 5 3 358 355 355 357 359 0 360 359 358 356 352 346 342 342 343 343 343 345 348 349 350 349 347 345 345 345 345 345 347 349 349 348 346 345 344 344 343 343 343 342 341 339 338 337 336 336 335 335 334 334 333 333 333 333 332 332 332 332 331 331 331 330 330 329 329 328 327 326 325 324 323 322 321 320 319 318 317 315 313
7 4 2 3 5 6 5 1 359 360 2 4 3 359 354 352 351 350 345 341 339 338 338 338 340 345 351 353 350 348 347 346 346 345 345 346 348 349 347 345 344 343 343 342 342 342 341 340 339 337 337 336 336 335 335 334 333 333 333 333 332 332 332 331 331 331 330 330 330 330 329 328 327 327 326 325 324 323 322 321 320 319 317 316 315 313
5 3 2 3 6 7 6 5 3 3 2 2 0 355 349 347 348 347 344 340 337 336 336 336 337 341 350 355 353 351 349 348 346 345 345 345 347 347 345 342 340 340 340 339 339 339 339 338 337 336 336 336 336 335 335 334 333 333 333 332 332 331 331 331 331 330 330 330 330 329 329 328 327 327 326 325 324 323 322 321 320 318 317 316 315 314
1 360 0 3 4 5 4 4 3 1 359 357 354 351 347 347 348 348 345 340 338 338 339 341 342 345 352 355 354 353 351 350 347 343 341 340 342 343 342 339 336 336 336 336 335 335 335 335 335 335 335 335 335 334 334 333 333 332 332 332 331 331 331 331 330 330 330 330 329 329 329 328 327 327 326 325 324 323 322 321 320 319 318 316 315 314
359 358 359 0 1 1 359 359 359 357 354 352 351 350 349 348 347 346 344 341 340 342 346 347 347 348 349 352 353 353 351 348 344 340 335 333 335 338 338 335 333 332 333 333 332 332 332 333 333 333 333 333 333 333 333 332 332 332 332 331 331 331 330 330 330 330 330 329 329 329 328 328 327 327 326 326 325 324 323 322 321 319 318 317 316 315
359 357 356 357 357 354 351 353 354 353 350 349 349 349 348 345 344 344 345 344 346 349 351 351 350 346 341 342 346 349 348 344 339 334 330 326 328 331 334 332 330 328 329 330 330 330 330 330 331 331 331 331 332 332 332 332 331 331 331 330 330 330 330 330 330 330 329 329 329 329 328 328 327 327 326 326 325 325 324 322 321 320 319 318 318 317
356 356 354 352 349 346 344 347 349 349 347 346 345 344 344 344 345 347 349 350 351 351 349 348 344 338 332 330 332 337 341 338 333 328 325 322 323 326 329 330 328 326 326 327 328 328 329 329 329 329 330 330 331 331 331 331 330 330 330 330 330 330 330 330 329 329 329 329 329 329 328 328 327 327 327 326 326 325 324 323 322 321 320 319 319 319
350 351 350 346 340 337 338 341 344 345 345 343 342 341 342 345 348 351 352 353 351 348 343 338 331 325 320 317 319 326 333 332 328 323 320 318 318 321 326 328 327 326 325 326 327 328 328 328 328 329 329 330 330 330 330 330 330 330 330 330 330 330 329 329 329 329 329 329 329 328 328 328 328 327 327 327 326 326 325 324 323 322 321 321 320 320
337 337 336 333 329 327 327 328 333 337 339 339 340 341 343 345 348 350 350 348 344 340 334 328 321 317 314 311 314 321 328 328 325 321 318 315 315 318 324 327 327 326 324 324 326 327 327 327 327 328 329 330 330 330 329 329 329 329 330 330 330 329 329 329 329 329 329 329 329 329 328 328 328 328 328 327 327 326 326 325 325 324 323 322 321 321
315 312 312 314 314 313 313 313 321 329 334 338 340 342 343 345 345 345 343 340 336 332 328 321 315 311 310 309 310 317 326 326 323 319 317 315 315 318 324 327 327 325 323 323 325 327 327 326 326 327 328 329 329 329 329 329 329 329 330 330 329 329 329 328 328 328 329 329 329 329 329 329 329 328 328 328 328 327 327 326 326 325 324 324 323 322
297 292 295 298 300 301 303 311 322 331 336 338 340 341 341 340 339 337 334 332 329 324 319 312 308 306 306 305 308 315 324 325 321 317 317 314 314 317 324 327 327 324 322 322 324 326 326 325 326 326 327 328 328 328 328 328 329 330 330 329 329 328 328 328 328 328 328 328 329 329 329 329 329 329 328 328 328 328 328 327 327 327 326 325 324 323
303 299 300 301 302 305 310 320 329 335 335 335 333 333 332 331 328 326 325 323 319 315 311 308 306 306 306 306 309 315 322 324 323 319 316 312 313 317 324 327 327 324 321 322 324 325 324 324 324 325 326 327 328 328 328 329 329 329 329 329 328 328 328 328 328 328 328 329 329 329 329 329 329 329 329 329 328 328 328 328 328 327 327 326 325 323
318 316 317 319 320 321 323 326 328 329 327 326 324 322 321 321 319 318 316 315 313 311 310 309 310 310 310 312 314 317 321 326 326 323 317 312 312 317 323 326 326 323 321 322 323 323 323 321 322 323 324 326 327 328 328 329 329 328 328 328 328 328 328 327 328 328 328 328 328 328 329 329 329 329 329 329 329 329 329 329 328 328 328 327 325 323
319 318 320 322 323 323 321 320 319 317 317 317 317 316 316 315 313 311 311 313 314 314 314 314 314 314 314 317 318 318 322 327 329 325 319 315 315 317 322 325 325 322 320 321 323 323 322 320 320 321 323 325 327 328 329 329 329 328 328 328 328 327 327 327 327 328 328 328 328 328 328 329 329 329 329 329 329 329 329 329 329 328 328 327 326 324
316 315 315 315 314 312 309 308 307 308 310 311 312 311 311 310 308 308 309 312 316 318 318 317 315 314 316 317 318 319 322 326 328 327 323 320 318 319 322 326 326 323 321 321 323 323 322 320 319 320 322 325 328 329 329 329 328 327 327 327 327 327 327 327 327 328 327 327 327 328 328 328 328 328 328 329 329 329 329 329 329 329 328 328 326 325
317 315 313 311 310 310 309 309 310 310 310 309 308 307 307 306 306 306 307 310 315 318 317 315 313 314 317 318 318 318 320 323 325 327 328 325 322 320 322 326 326 325 322 322 322 322 320 318 318 320 323 326 327 328 328 327 327 327 327 327 327 327 327 327 327 327 327 327 327 327 327 327 328 328 328 328 329 329 329 329 329 329 329 328 327 325
324 323 322 320 319 318 317 316 314 313 311 310 308 307 305 303 303 303 303 309 313 315 311 310 311 313 316 316 315 316 318 319 323 329 332 330 324 320 321 325 327 326 324 322 321 321 320 318 319 321 324 326 326 327 326 326 326 327 327 326 326 327 327 326 326 326 326 326 326 326 327 327 327 327 328 328 328 328 329 329 329 329 329 328 327 325
331 331 331 330 328 325 322 318 316 315 314 312 310 309 306 303 301 302 305 310 312 310 307 306 307 309 310 311 312 314 316 318 323 331 334 332 325 320 322 325 327 328 327 325 324 323 322 321 323 324 325 325 326 325 325 326 326 327 327 327 327 327 327 326 326 326 326 326 326 326 326 326 326 327 327 327 327 328 328 329 330 330 329 328 327 325
335 337 339 340 339 335 330 324 321 320 317 314 312 310 308 305 303 304 307 309 308 306 305 305 306 307 309 311 314 315 315 318 324 331 334 332 325 321 324 325 327 328 330 329 327 325 323 323 324 325 326 325 325 324 325 325 326 326 326 327 327 326 326 326 326 326 325 325 325 325 326 326 326 326 326 326 327 327 327 329 330 330 329 328 327 325
335 337 338 340 341 339 334 329 324 321 317 314 311 309 307 306 306 306 307 306 306 305 304 304 304 306 308 311 313 313 311 313 319 327 332 328 322 320 323 323 324 326 328 329 328 323 321 321 323 324 325 325 324 324 324 325 325 326 326 326 326 326 325 325 325 325 325 325 325 325 325 325 325 325 325 326 326 326 327 328 329 330 329 328 327 325
333 333 334 335 336 335 332 327 323 320 317 314 311 309 306 305 305 305 304 303 303 304 304 303 303 303 303 303 299 296 299 306 313 322 327 324 319 318 320 320 320 321 323 323 320 314 311 315 318 320 322 323 323 323 323 324 324 325 325 325 325 324 324 325 325 325 325 325 325 325 324 324 325 325 325 325 325 326 326 327 329 330 329 328 326 324
330 330 331 332 332 331 330 327 323 321 318 316 314 312 309 305 302 301 299 300 302 303 303 303 302 301 301 299 296 294 295 301 309 317 323 321 318 317 318 318 318 318 319 319 316 311 306 307 312 316 319 320 321 321 322 323 324 324 325 324 323 323 323 324 324 324 324 324 324 324 324 324 324 324 325 325 325 325 326 326 327 328 329 327 325 324
328 328 329 330 330 329 328 326 324 322 320 318 316 313 310 307 304 303 302 303 304 303 301 300 299 299 300 300 298 297 297 301 307 315 319 319 316 314 315 316 316 317 318 317 316 314 310 308 310 314 316 317 318 319 320 322 323 323 323 323 322 321 322 322 323 323 323 323 323 323 324 324 324 325 324 325 325 325 325 325 326 326 327 326 325 323
326 327 329 329 329 329 328 327 325 322 320 318 317 314 312 310 309 309 309 307 305 302 299 298 296 295 296 297 298 298 299 302 307 313 316 316 314 312 312 312 314 315 315 315 315 315 313 312 312 313 314 316 317 318 319 321 322 322 322 321 321 320 320 321 321 322 322 322 322 323 323 323 324 324 323 323 324 324 323 324 324 324 325 324 324 323
325 326 328 328 329 329 328 327 325 323 321 319 318 317 315 314 313 312 310 307 305 303 302 301 298 295 293 292 292 294 296 300 304 309 311 311 310 309 308 308 310 311 311 312 313 313 312 311 312 312 313 314 315 317 319 320 321 321 321 321 320 320 320 320 320 320 321 321 321 321 322 323 323 322 322 322 322 322 322 322 323 323 323 323 323 322
324 325 326 327 328 327 327 326 325 324 323 321 319 318 317 315 313 311 310 308 307 307 307 305 301 297 293 291 290 290 293 297 301 306 309 310 309 307 303 303 305 307 307 308 310 311 311 310 311 312 313 313 314 315 317 319 320 320 320 320 320 319 319 319 320 320 320 319 319 319 320 321 321 321 321 322 322 322 322 322 323 323 323 322 322 321
322 323 324 325 326 326 325 325 324 324 323 321 320 318 316 314 313 311 310 309 309 309 309 306 303 300 296 294 292 293 295 298 302 306 309 312 312 309 303 301 303 305 304 304 305 307 308 308 310 312 313 312 312 312 314 316 317 318 318 318 318 318 318 319 320 320 319 318 317 318 319 320 320 320 321 321 322 322 322 322 323 323 323 322 321 320
320 320 322 323 324 324 323 323 323 322 321 320 318 317 315 314 313 313 312 311 311 310 308 306 303 302 300 299 299 299 300 302 305 309 312 314 315 313 308 304 302 304 306 305 305 304 304 305 306 308 309 310 311 311 312 313 314 315 316 317 317 318 318 319 319 319 318 317 317 319 319 320 320 320 320 321 322 322 322 321 321 322 322 322 322 321
318 318 319 320 320 321 320 320 320 320 319 318 317 317 316 316 315 315 314 313 312 310 308 307 306 304 303 303 303 303 305 307 310 313 315 317 318 317 314 309 306 306 308 309 308 307 306 304 304 304 305 306 307 309 311 311 312 313 315 316 316 316 317 317 318 317 317 317 317 317 318 319 320 320 320 321 321 320 320 319 319 319 320 320 320 320
314 314 315 315 316 317 318 318 318 317 317 317 318 318 318 318 318 317 316 316 314 313 312 311 310 309 307 305 305 306 308 310 313 316 317 318 319 318 317 314 312 310 310 311 310 309 307 305 304 303 303 304 305 306 307 308 309 311 313 312 311 311 312 314 316 316 317 317 317 317 318 319 319 320 320 320 319 318 317 316 316 316 317 317 317 316
309 310 311 312 314 315 316 316 316 316 317 317 317 317 318 318 318 317 317 316 316 316 316 316 315 313 310 308 308 309 311 313 315 317 318 319 319 319 318 316 315 314 313 312 311 310 308 305 303 303 303 304 305 306 305 306 307 309 309 308 309 310 311 313 315 317 317 317 316 317 318 319 318 318 319 318 317 316 315 314 314 314 314 314 313 312
304 305 306 309 311 314 315 315 316 316 316 316 315 315 316 317 317 316 316 315 315 315 316 316 315 313 310 309 309 311 312 314 316 318 318 319 320 320 319 318 317 316 315 312 310 309 308 307 304 302 302 303 304 304 303 305 306 307 307 307 309 310 311 312 315 316 317 316 316 317 317 317 317 316 316 315 315 314 314 314 314 314 313 312 310 310
301 302 304 307 310 311 312 313 313 313 313 313 312 313 314 316 316 316 314 313 313 314 315 315 314 312 309 308 309 311 312 313 315 317 318 320 321 321 320 319 318 318 316 313 309 308 309 308 306 305 304 303 302 302 301 302 304 305 307 308 308 308 307 308 311 314 315 316 316 316 316 316 316 315 315 314 314 314 314 314 313 312 312 311 310 308
298 300 303 306 309 311 311 311 310 310 310 309 309 310 312 314 315 316 314 312 311 312 313 314 314 312 308 307 309 311 312 314 315 317 318 320 321 321 321 320 319 318 316 313 309 306 305 305 305 305 305 303 301 299 300 301 302 304 306 308 308 308 307 308 311 313 314 315 315 315 315 316 315 315 314 314 314 314 314 313 313 312 312 311 310 309
296 300 303 306 307 308 308 308 308 308 308 307 307 308 310 312 314 314 313 312 311 311 311 313 311 308 306 306 309 311 312 313 314 316 318 319 320 321 321 320 319 317 316 313 310 307 303 301 302 303 304 303 302 300 299 299 302 304 306 309 310 311 311 312 312 313 314 314 314 314 314 315 315 314 313 312 312 313 313 313 312 312 312 312 311 310
298 300 302 304 304 305 305 306 306 306 306 305 305 306 307 310 312 313 312 312 311 310 310 310 309 305 303 304 307 309 310 311 312 314 316 317 319 320 320 320 319 317 315 313 310 307 304 302 301 301 301 301 300 301 301 302 303 305 307 310 312 313 313 312 313 313 313 312 312 312 313 314 314 313 312 311 311 311 312 313 313 312 312 312 311 310
297 299 300 301 301 302 302 303 304 303 302 302 303 304 305 307 309 310 310 311 311 310 309 308 306 304 303 303 304 305 306 307 309 311 313 315 317 319 319 319 319 318 316 313 310 307 305 304 302 300 297 295 295 298 300 303 306 308 310 312 313 312 311 311 311 312 312 311 310 311 312 312 312 311 310 310 310 310 311 313 313 313 313 313 312 311
293 295 296 298 298 299 298 299 300 300 299 299 300 302 304 305 306 307 307 308 308 308 307 306 305 304 304 303 304 305 305 305 306 308 311 314 316 318 319 320 319 318 317 314 312 310 308 307 305 302 299 294 293 297 301 305 308 310 311 311 311 311 310 309 310 311 312 310 310 310 310 309 308 307 307 307 308 309 310 312 313 314 314 314 312 311
290 291 293 294 295 295 295 296 297 296 296 297 298 300 302 304 305 305 306 306 306 305 304 304 304 303 303 303 304 305 305 305 306 308 310 313 316 318 319 319 320 319 319 317 316 315 312 311 309 308 306 302 300 300 303 307 309 311 311 310 310 310 309 309 309 310 311 309 308 308 308 307 307 307 307 306 307 308 310 311 313 314 314 314 313 312
288 289 290 291 291 291 292 293 293 293 293 294 296 298 300 303 305 305 306 305 304 303 302 302 302 302 301 302 303 304 305 305 306 307 310 313 315 317 318 319 319 320 320 320 319 319 317 315 314 313 313 311 310 309 309 310 311 312 311 310 309 310 310 308 308 309 309 308 307 307 307 306 307 308 308 308 308 308 309 311 312 313 314 315 314 312
Height
827 827 826 826 825 824 824 823 823 822 821 820 820 819 818 818 817 817 816 816 815 814 813 812 812 811 810 810 809 809 808 808 807 806 806 805 804 803 803 802 801 800 799 798 797 795 794 793 793 792 791 790 789 788 787 786 785 784 783 783 782 781 779 778 777 776 775 773 772 771 769 768 767 765 764 763 762 760 759 758 757 755 754 752 750 749
827 827 826 826 825 824 824 824 823 823 822 821 820 819 819 818 817 817 816 815 815 814 813 812 812 811 810 809 809 808 808 807 807 806 805 805 804 803 803 802 800 799 798 797 796 795 794 793 792 791 790 789 789 788 787 786 785 784 783 782 781 780 779 778 776 775 773 772 771 769 768 767 766 764 763 762 761 759 758 757 755 754 753 751 749 748
827 827 826 826 825 825 824 824 824 823 822 822 821 820 819 818 818 817 816 815 815 814 813 813 812 811 810 809 809 808 808 807 806 806 805 804 804 803 802 801 800 799 798 797 795 794 793 793 792 791 790 789 788 787 786 785 784 783 782 781 780 779 778 777 775 774 773 771 770 768 767 766 765 763 762 761 760 758 757 756 754 753 751 750 748 747
827 827 826 826 825 825 825 824 824 823 823 822 821 821 820 819 818 817 816 815 815 814 813 813 812 811 810 809 808 808 807 807 806 805 805 804 803 803 802 800 799 798 797 796 795 794 793 792 791 790 789 788 788 787 786 785 783 783 782 780 779 778 777 775 774 773 771 770 769 767 766 765 763 762 761 760 759 757 756 754 753 752 750 749 747 746
828 827 827 826 826 825 825 825 824 823 823 822 821 821 820 819 818 817 816 815 814 813 813 812 812 811 810 809 808 808 807 806 806 805 804 804 803 802 801 800 798 798 796 795 794 793 792 792 791 790 789 788 787 786 785 784 783 782 781 779 778 777 776 774 773 772 771 769 768 767 765 764 763 761 760 759 758 756 755 753 752 751 749 748 747 745
828 828 827 827 826 826 826 825 824 823 823 822 821 821 820 819 818 817 816 815 814 813 813 812 812 811 810 809 808 807 807 806 805 805 804 803 803 801 800 799 798 797 796 795 794 793 792 791 790 789 788 788 787 786 784 783 782 781 780 779 778 776 775 774 772 771 770 768 767 766 764 763 762 761 759 758 757 755 754 753 751 750 748 747 746 744
828 828 827 827 827 826 826 825 825 824 823 822 821 820 820 819 818 817 816 815 814 813 813 812 811 811 810 809 808 807 806 805 805 804 803 803 802 801 799 798 798 796 795 794 793 792 792 791 790 789 788 787 786 785 784 783 781 780 779 778 776 775 774 773 772 770 769 768 766 765 764 763 761 760 758 757 756 754 753 752 750 749 748 746 745 743
828 828 827 827 827 826 826 826 825 824 823 823 821 820 819 818 818 817 816 815 814 813 812 811 811 810 809 808 808 807 806 805 804 803 803 802 801 800 798 798 797 796 795 794 793 792 791 790 789 788 788 787 785 784 783 782 780 779 778 777 775 774 773 772 771 769 768 767 766 764 763 762 760 759 758 756 755 753 752 750 749 748 746 745 743 742
828 828 827 827 827 826 826 826 825 825 824 823 823 821 820 818 817 816 815 814 814 813 812 811 810 809 808 808 807 807 806 805 805 803 803 801 800 799 798 797 796 795 794 793 792 791 790 790 789 788 787 786 785 783 782 781 779 778 777 776 774 773 772 771 770 768 767 766 765 763 762 761 760 758 757 755 754 752 751 749 748 746 745 743 742 741
828 828 828 828 827 827 827 826 826 825 825 824 823 823 821 819 817 816 814 813 813 813 813 811 810 809 808 807 807 806 806 805 804 804 803 801 800 799 798 797 795 794 793 793 792 791 790 789 788 787 786 785 784 782 781 780 778 777 776 775 773 772 771 770 769 768 766 765 764 763 761 760 759 757 756 754 753 751 750 748 747 745 743 742 741 739
828 828 828 828 828 828 827 827 826 826 825 824 823 822 821 820 819 817 815 813 813 812 812 812 811 809 808 807 806 806 805 804 803 802 802 801 800 798 797 796 795 794 793 792 791 790 790 789 788 787 785 784 783 781 780 778 777 776 775 773 773 771 770 769 768 767 765 764 763 762 760 759 758 756 755 753 752 750 749 747 746 744 743 741 739 738
829 828 828 828 828 828 827 827 826 826 824 823 822 821 820 820 819 818 817 815 814 813 812 812 811 811 810 808 807 806 805 803 802 801 800 799 798 797 796 794 793 793 792 791 790 789 788 788 787 786 784 783 781 780 779 777 776 775 774 773 771 770 769 768 767 766 764 763 762 761 759 758 756 755 753 752 750 749 748 746 744 743 741 740 738 737
829 829 829 828 828 828 827 827 826 825 824 823 823 823 822 821 820 819 819 818 816 815 813 813 812 811 810 810 809 807 805 803 802 801 799 798 797 796 794 793 792 791 791 790 789 788 788 787 785 784 783 782 780 779 778 776 775 774 773 772 770 769 768 767 766 764 763 762 761 759 758 757 755 753 752 751 749 748 746 744 743 742 740 738 737 735
829 829 829 828 828 828 828 827 826 826 825 825 824 824 823 822 821 820 819 818 817 816 815 813 812 811 810 810 809 808 805 803 801 800 798 798 797 797 796 794 793 792 791 790 789 788 787 786 784 783 782 780 779 778 777 775 774 773 772 770 769 768 767 766 765 763 762 761 760 758 757 755 754 752 751 749 748 746 745 743 742 740 738 737 735 733
830 829 829 829 828 828 828 827 827 826 826 826 825 824 823 823 822 821 820 819 817 816 814 813 812 811 810 810 809 807 806 804 802 800 799 798 798 798 797 796 794 793 792 791 790 788 787 786 784 783 781 780 778 777 776 774 773 772 771 769 768 767 766 765 764 763 761 760 758 757 756 754 753 751 750 748 747 745 743 742 740 738 737 735 733 732
830 830 829 829 828 828 828 828 827 827 827 826 825 825 824 823 823 822 821 820 818 816 814 812 810 809 808 808 808 808 807 805 804 803 801 799 798 798 798 797 795 793 793 792 790 788 787 786 784 783 781 779 778 777 776 774 773 771 770 769 768 766 765 764 763 761 760 758 757 756 754 753 751 750 748 747 745 744 742 740 738 737 735 733 732 730
830 830 829 829 829 828 828 828 828 828 827 826 826 825 825 824 823 823 821 820 818 817 816 814 813 811 809 808 808 808 808 807 806 805 803 801 799 799 798 798 796 794 792 791 790 788 787 785 784 782 781 779 778 776 775 773 772 771 769 768 767 765 764 763 762 760 759 757 756 754 753 752 750 749 747 746 744 742 740 739 737 735 733 732 730 729
830 830 830 829 829 829 828 828 828 828 827 827 826 825 825 824 823 823 822 820 819 818 817 817 816 816 814 811 809 809 809 809 808 806 804 802 800 799 798 798 796 794 793 791 790 788 787 785 783 782 780 779 777 776 774 773 771 770 768 767 766 764 763 762 760 759 758 756 755 753 752 750 749 748 746 744 743 741 739 737 735 734 732 730 729 727
830 830 830 830 829 829 829 828 828 828 827 827 826 825 824 824 823 822 821 821 820 819 819 818 818 817 816 814 812 810 810 810 809 807 805 802 800 798 798 797 796 794 792 791 789 788 786 784 783 781 779 778 776 775 773 772 771 769 768 766 765 763 762 761 759 758 756 755 753 752 751 749 748 746 744 743 741 739 738 736 734 732 731 729 727 725
831 830 830 830 830 829 829 828 828 828 827 827 826 825 824 823 822 822 821 821 821 820 820 819 818 817 816 814 812 811 810 810 808 807 805 802 800 798 797 796 795 793 791 790 788 787 785 783 781 779 778 777 775 774 773 771 770 768 767 766 764 763 761 759 758 756 755 754 752 751 749 748 746 745 743 741 740 738 736 734 733 731 729 728 726 724
831 830 830 830 829 829 829 828 828 827 827 826 825 824 823 823 822 822 822 821 821 820 820 819 818 817 816 814 812 811 810 809 808 807 804 802 799 798 797 796 794 792 790 788 787 786 784 782 780 778 777 775 774 773 772 770 769 768 767 765 763 762 760 758 757 755 754 753 751 750 748 747 745 743 742 740 738 737 735 733 731 730 728 726 724 722
830 830 830 829 829 829 828 828 827 827 826 826 825 824 824 823 823 822 822 821 821 820 820 819 818 816 815 814 812 810 810 809 808 807 804 801 798 797 796 795 793 792 789 787 786 784 783 781 779 778 776 775 773 772 771 770 768 767 766 764 763 761 759 757 756 754 753 752 750 749 747 745 744 742 740 738 737 735 733 732 730 728 726 724 723 720
830 830 829 829 828 828 828 827 826 826 826 825 825 825 824 824 823 823 822 822 821 820 819 818 817 815 814 813 811 810 809 809 808 807 804 802 798 796 795 794 793 791 788 787 785 783 781 780 778 776 775 774 773 771 770 769 768 767 765 763 761 760 758 756 755 753 752 751 749 748 746 744 743 741 739 738 736 734 732 731 729 727 725 723 721 719
829 829 828 828 828 827 827 826 826 826 825 825 825 824 824 824 823 823 823 822 821 820 819 818 816 814 813 811 810 809 808 808 807 806 804 802 798 796 794 793 792 789 787 786 784 782 780 778 777 775 774 773 772 771 770 768 767 766 764 762 760 759 757 755 754 753 751 749 748 746 745 743 741 740 738 736 735 733 731 729 728 726 724 722 719 717
829 828 828 827 827 827 826 826 826 826 825 825 824 824 823 823 823 823 822 822 821 820 819 817 815 813 812 810 809 808 807 807 806 805 804 801 798 796 794 793 792 789 786 784 783 782 779 777 775 774 773 772 771 770 769 768 766 764 763 761 759 758 756 755 753 752 750 748 747 745 743 742 740 738 737 735 733 732 730 728 726 724 722 720 718 715
829 828 828 827 827 827 827 826 826 825 825 825 824 824 823 823 823 822 822 821 820 820 818 817 815 813 812 810 808 807 806 806 805 804 803 801 798 796 794 793 791 789 786 783 782 780 778 776 774 773 772 771 770 769 768 766 765 763 762 760 758 757 755 754 752 751 749 748 746 744 743 741 739 738 736 734 733 731 729 727 725 723 721 718 716 713
828 828 828 827 827 826 826 825 825 825 825 824 824 824 823 823 822 821 821 820 820 819 818 817 815 813 811 809 808 806 805 805 804 804 803 801 799 796 793 792 791 788 785 783 781 780 778 776 774 772 771 770 768 767 766 765 763 762 760 759 758 756 754 753 751 750 748 746 745 743 741 740 738 736 735 733 732 730 728 726 724 722 720 717 715 712
827 827 827 826 826 825 825 825 824 824 824 824 824 823 823 823 822 821 820 820 819 819 818 817 815 813 811 809 808 806 805 804 804 803 802 801 799 796 794 792 791 788 785 782 779 778 777 775 773 772 770 769 768 766 765 763 762 761 759 758 756 755 753 752 750 749 747 745 743 742 740 738 737 735 734 732 731 729 727 725 723 721 718 716 714 711
826 826 825 825 825 824 824 824 823 823 823 823 823 823 823 822 821 821 820 819 819 818 818 817 815 814 812 810 808 806 804 804 803 803 802 801 798 796 794 793 791 789 786 782 778 775 775 774 773 772 770 768 767 765 763 762 760 759 758 756 755 754 753 751 749 748 746 744 743 741 739 738 736 734 733 731 730 728 726 724 723 720 718 715 713 711
825 825 824 824 824 823 823 823 823 823 823 823 823 822 822 821 821 820 820 819 819 818 817 816 815 814 812 810 808 805 803 803 803 802 802 800 798 796 794 793 791 790 788 783 778 773 771 771 771 771 770 768 766 764 763 761 759 758 756 755 753 752 751 749 748 746 745 743 741 739 738 736 735 733 732 730 728 727 725 724 722 720 717 715 713 710
824 824 824 823 823 823 823 823 822 822 822 822 822 821 821 821 820 820 819 819 818 817 817 815 814 813 812 811 809 806 803 802 802 802 802 800 798 796 794 793 791 790 789 788 783 778 771 767 767 768 769 768 766 764 762 760 759 757 755 754 752 751 749 748 747 745 743 742 740 738 737 735 734 732 731 729 728 726 724 723 721 719 717 714 712 709
824 823 823 823 823 822 822 822 822 822 821 821 821 820 820 820 819 819 818 818 818 817 816 815 814 813 812 811 810 808 804 802 801 802 802 801 798 796 795 793 792 790 789 789 788 784 778 771 766 765 766 766 765 763 761 760 758 757 755 753 751 749 748 747 745 743 742 740 738 737 736 734 733 731 729 728 727 725 723 722 721 719 717 715 712 709
823 823 823 823 822 822 822 821 821 821 821 820 820 820 819 819 818 818 818 817 817 816 815 814 813 812 811 810 809 807 805 803 802 802 802 801 799 797 795 793 792 790 788 788 787 786 783 777 771 767 765 764 763 762 761 759 758 757 755 753 751 748 747 745 744 742 741 739 737 735 734 733 731 730 728 727 725 724 723 721 720 719 717 715 712 709
823 823 822 822 822 821 821 821 821 820 820 819 819 819 818 818 817 817 817 816 816 815 815 814 813 812 810 809 808 806 804 803 802 802 802 801 799 797 795 793 792 790 788 786 785 783 781 778 774 770 765 763 762 762 760 759 757 756 754 753 751 748 746 744 743 742 740 738 736 734 733 731 730 728 727 725 724 723 721 720 719 718 717 715 713 710
822 822 822 821 821 821 820 820 820 819 819 819 818 818 817 817 816 816 815 815 814 814 813 813 812 811 810 809 807 805 803 802 801 801 801 801 799 797 795 793 792 790 788 786 784 782 779 776 774 772 768 763 760 759 759 758 757 756 754 753 751 749 747 745 743 741 739 737 736 734 732 730 728 727 725 724 723 721 720 718 718 716 715 714 713 711
822 821 821 821 820 820 820 819 819 819 818 818 818 817 816 816 815 815 814 813 813 813 812 812 811 810 810 808 807 805 803 801 800 800 801 800 799 797 795 793 792 790 788 786 784 782 779 776 773 771 769 765 761 758 757 756 756 755 753 752 750 748 746 744 743 741 739 737 735 733 731 730 728 726 724 723 722 720 718 717 716 714 713 712 711 710
821 821 820 820 820 819 819 819 818 818 818 817 817 816 815 815 814 813 813 813 812 811 811 810 809 809 808 808 806 805 803 801 800 800 799 799 798 797 795 793 792 790 789 787 784 782 779 776 772 769 768 766 763 759 756 754 753 753 752 751 749 747 745 744 742 741 739 737 734 733 731 729 727 725 723 722 720 718 717 715 714 713 711 710 708 708
820 820 820 819 819 819 818 818 818 817 817 816 815 815 814 814 813 813 812 811 811 810 809 809 808 807 807 806 805 803 802 801 800 799 798 798 797 796 795 793 791 790 789 787 785 782 780 777 773 770 767 764 763 761 758 756 753 752 750 749 748 747 745 743 742 740 738 736 734 732 730 729 727 725 723 720 718 716 714 713 711 710 708 707 705 704
819 819 819 819 818 818 818 817 817 816 816 815 815 814 813 813 812 812 811 810 810 809 808 808 807 805 804 803 803 802 801 800 798 798 797 796 796 795 793 792 790 788 788 786 785 783 781 778 775 772 768 765 762 759 758 757 754 752 750 748 746 745 744 743 741 739 738 735 733 731 729 728 726 724 722 720 718 716 713 711 709 708 706 704 702 700
819 819 818 818 818 818 817 817 816 816 815 814 814 813 813 812 811 810 810 809 808 808 807 806 805 804 803 802 801 800 799 798 797 796 796 795 794 793 793 791 789 788 786 785 784 783 781 778 775 773 770 767 763 760 758 756 754 753 750 748 745 743 742 741 740 738 736 735 733 731 728 726 725 723 722 720 718 716 714 711 709 707 706 704 702 699
818 818 818 818 817 817 817 816 816 815 814 814 813 813 812 811 810 809 809 808 807 807 806 805 804 803 801 800 799 798 798 797 796 795 794 793 793 792 791 790 788 787 786 784 783 781 780 778 775 772 770 767 764 761 758 756 754 753 751 749 746 743 741 740 739 737 735 734 732 730 728 726 724 722 721 719 717 715 714 712 709 707 705 704 703 700
818 818 817 817 817 816 816 815 815 814 814 813 813 812 811 811 810 809 808 807 806 805 804 803 803 801 800 798 797 796 796 795 794 794 793 793 792 791 790 789 788 786 785 783 782 780 778 777 774 772 769 767 764 761 758 755 753 753 751 749 746 742 739 738 737 737 735 733 731 729 728 726 723 721 720 718 716 714 712 711 709 707 705 703 702 700
817 817 817 816 816 815 815 815 814 814 813 813 812 812 811 810 809 809 808 807 806 805 804 803 802 801 799 797 796 795 794 793 793 793 792 791 790 789 788 788 787 785 784 782 780 778 777 775 773 771 769 767 764 761 758 754 752 751 750 748 746 743 739 736 735 734 734 732 730 728 727 725 723 721 719 717 715 713 711 709 708 706 705 703 701 698
816 816 816 815 815 815 814 814 813 813 813 812 811 811 810 810 809 808 807 806 805 804 803 802 801 800 798 797 795 793 793 792 791 791 790 790 789 788 787 786 785 784 783 782 780 778 775 773 771 769 768 766 763 761 758 754 752 750 748 747 746 744 741 738 735 733 732 730 729 728 726 724 722 719 717 715 713 711 709 707 705 704 703 701 699 698
816 815 815 814 814 814 813 813 813 812 812 811 811 810 810 809 808 808 807 806 805 803 803 802 801 799 798 796 794 793 792 790 790 789 788 788 788 787 786 785 784 783 782 781 779 777 775 772 769 767 765 764 762 760 757 754 752 749 747 746 744 743 741 738 736 734 732 729 728 726 724 723 721 718 716 713 711 709 708 706 704 702 700 699 698 696
815 814 814 814 814 813 813 813 812 812 811 810 810 809 809 808 808 807 806 805 804 803 802 801 800 799 797 795 794 793 791 789 788 788 787 786 786 785 784 783 783 782 780 779 778 776 774 772 769 766 764 762 760 758 756 754 752 749 746 744 743 741 739 737 735 734 732 729 727 725 723 721 720 718 715 712 709 708 706 705 703 701 699 697 696 694
814 814 813 813 813 813 812 812 812 811 810 810 809 808 808 808 807 806 805 804 803 803 802 801 800 799 797 795 794 793 791 789 788 786 785 785 784 783 783 782 781 780 779 778 776 774 773 771 768 766 764 761 758 755 753 753 751 749 746 744 742 740 738 736 734 733 731 729 727 724 722 720 718 716 713 710 708 706 704 703 702 700 698 697 695 693
813 813 813 813 812 812 812 811 811 810 810 809 808 808 807 807 806 805 804 803 803 802 801 800 799 798 796 795 793 793 791 789 787 786 784 783 783 782 781 780 779 778 777 775 774 773 771 769 767 765 763 761 758 755 752 750 749 748 746 744 742 740 738 735 733 732 730 728 726 723 722 720 718 715 712 709 706 703 702 700 699 698 697 696 694 692
813 813 812 812 812 811 811 810 810 810 809 808 807 807 806 805 805 805 804 803 802 801 800 799 798 797 795 794 793 792 790 789 787 785 784 783 782 781 779 778 777 776 774 773 772 770 768 767 765 764 762 760 758 754 751 749 748 747 746 744 742 739 737 734 732 730 729 726 724 722 721 719 717 715 712 709 705 702 700 698 697 696 695 694 692 690
812 812 812 812 811 811 810 810 809 809 808 807 807 806 805 804 804 803 803 802 801 800 799 798 797 796 794 793 792 790 789 788 786 785 783 782 781 780 778 777 776 774 772 770 769 768 766 764 763 762 761 759 758 755 752 749 747 746 744 743 741 739 736 733 731 729 727 725 723 720 719 717 715 713 712 708 705 701 698 696 695 693 693 692 690 688
811 811 811 811 810 810 809 809 808 808 807 807 806 805 804 803 803 802 802 801 800 799 798 798 797 795 794 792 791 790 788 787 786 784 783 782 781 779 778 776 775 773 771 769 767 765 764 762 760 758 757 757 756 755 753 749 747 744 743 741 739 738 736 733 730 728 726 724 722 719 717 715 713 712 710 708 705 701 697 694 693 691 690 689 688 686